Regional Weather Roundup
Issued by NWS

Home | Current Version | Previous Version | Text Only | Print | Product List | Glossary Off
Versions: 1 2 3 4 5 6 7 8 9 10 11 12 13 14 15 16 17 18 19 20 21 22 23 24 25 26 27 28 29 30 31 32 33 34 35 36 37 38 39 40 41 42 43 44 45 46 47 48 49 50

000
ASUS45 KCYS 012310
RWRWY

WYOMING REGIONAL WEATHER ROUNDUP
NATIONAL WEATHER SERVICE CHEYENNE WY
500 PM MDT MON SEP 01 2014

NOTE:  "FAIR" INDICATES FEW OR NO CLOUDS BELOW 12,000 FEET
WITH NO SIGNIFICANT WEATHER AND/OR OBSTRUCTIONS TO VISIBILITY.

WYZ001-020000-
YELLOWSTONE NATIONAL PARK

CITY           SKY/WX    TMP DP  RH WIND       PRES   REMARKS
LK YELLOWSTONE   N/A     52  35  52 VRB6      30.21R
W YELLOWSTONE  NOT AVBL

$$
WYZ002>013-054>058-071-098>099-020000-
NORTHERN WYOMING

CITY           SKY/WX    TMP DP  RH WIND       PRES   REMARKS
JACKSON        MOSUNNY   64  28  25 SW5G17    30.14S
CODY             N/A    N/A N/A N/A MISG        N/A
GREYBULL       SUNNY     72  39  30 NE6       29.95F
WORLAND        SUNNY     72  40  31 CALM      29.96F
SHERIDAN       MOSUNNY   69  40  34 N5        29.98S
BUFFALO        MOSUNNY   63  41  44 N7        30.04R
GILLETTE       MOSUNNY   63  43  48 W7        29.99F
HULETT         FAIR      61  41  48 MISG      29.99
NEWCASTLE      FAIR      61  43  51 NW13      30.02

$$
WYZ014>020-022>026-101>103-020000-
CENTRAL WYOMING

CITY           SKY/WX    TMP DP  RH WIND       PRES   REMARKS
BIG PINEY      SUNNY     67  28  23 NW13G20   30.16S
PINEDALE       MOCLDY    64  30  27 W15       30.17S
DUBOIS         MOCLDY    63  27  25 NW16G28   30.12S
LANDER         SUNNY     75  28  17 VRB5      30.00F
RIVERTON       MOSUNNY   74  23  15 NW20      30.01S
CASPER         MOSUNNY   72  32  23 W10       30.01S
DOUGLAS        PTSUNNY   63  46  54 N5        30.02R

$$
WYZ021-027>030-104>119-020000-
SOUTHERN WYOMING

CITY           SKY/WX    TMP DP  RH WIND       PRES   REMARKS
EVANSTON       MOSUNNY   68  31  25 W15G24    30.20S
KEMMERER       CLEAR     64  30  27 W17G23    30.20S
FORT BRIDGER   FAIR      71  32  23 W18G25    30.20F
ROCK SPRINGS   SUNNY     70  28  21 W18G31    30.14R
DIXON          MOCLDY    71  36  28 W9        30.15R
RAWLINS        SUNNY     70  21  15 W25G36    30.10R
SARATOGA       FAIR      68  30  24 W23G33    30.14R
LARAMIE        PTSUNNY   65  32  29 W22G39    30.11R
CHEYENNE       MOSUNNY   74  29  19 W20G33    30.03R
TORRINGTON     MOSUNNY   73  46  38 N16       29.92R
PINE BLUFFS    FAIR      72  34  25 W6        29.98S

$$


USA.gov is the U.S. government's official web portal to all federal, state and local government web resources and services.